ANA377 RJTT-RJCN

Flight info

Callsign ANA377
Flight time 1h 17m
Altitude 37000
Route BRUCE AGRIS Y11 YTE Y111 TCE V2 MASHU
Aircraft A21N/M-Q/LB1

Departure

Time 2026-05-04 01:25
Airport Tokyo Haneda International Airport (RJTT)

Arrival

Time 2026-05-04 02:42
Airport Nakashibetsu Airport (RJCN)
Time Latitude Longitude Altitude Speed Heading
2026-05-04 00:56 35.56146 139.78469 29 ft 0 kts 60°
2026-05-04 01:15 35.56135 139.78447 9 ft 4 kts 60°
2026-05-04 01:15 35.56124 139.78422 47 ft 3 kts 59°
2026-05-04 01:15 35.56107 139.78399 30 ft 4 kts 26°
2026-05-04 01:16 35.56084 139.78396 29 ft 4 kts 342°
2026-05-04 01:16 35.56069 139.78403 29 ft 1 kts 329°
2026-05-04 01:19 35.56081 139.78395 29 ft 4 kts 329°
2026-05-04 01:20 35.56123 139.78365 29 ft 10 kts 329°
2026-05-04 01:20 35.56194 139.78313 29 ft 14 kts 329°
2026-05-04 01:20 35.56283 139.78249 30 ft 16 kts 329°
2026-05-04 01:20 35.56374 139.78186 30 ft 1 kts 350°
2026-05-04 01:21 35.56381 139.78194 30 ft 3 kts 66°
2026-05-04 01:21 35.56381 139.78227 30 ft 5 kts 90°
2026-05-04 01:21 35.56393 139.78270 30 ft 6 kts 59°
2026-05-04 01:21 35.56416 139.78324 30 ft 8 kts 63°
2026-05-04 01:22 35.56447 139.78388 30 ft 9 kts 59°
2026-05-04 01:22 35.56483 139.78464 31 ft 11 kts 62°
2026-05-04 01:22 35.56523 139.78553 31 ft 13 kts 60°
2026-05-04 01:22 35.56560 139.78646 35 ft 10 kts 104°
2026-05-04 01:23 35.56530 139.78700 36 ft 0 kts 153°
2026-05-04 01:24 35.56490 139.78725 36 ft 33 kts 152°
2026-05-04 01:24 35.56061 139.79028 32 ft 105 kts 149°
2026-05-04 01:24 35.55269 139.79593 35 ft 155 kts 153°
2026-05-04 01:25 35.54307 139.80295 403 ft 161 kts 156°
2026-05-04 01:25 35.53366 139.81054 910 ft 165 kts 148°
2026-05-04 01:25 35.52553 139.82108 1437 ft 171 kts 141°
2026-05-04 01:25 35.51719 139.83158 1896 ft 178 kts 144°
2026-05-04 01:26 35.50801 139.84289 2204 ft 195 kts 143°
2026-05-04 01:26 35.49816 139.85512 2605 ft 208 kts 148°
2026-05-04 01:26 35.48767 139.86825 3033 ft 222 kts 146°
2026-05-04 01:26 35.47657 139.88218 3392 ft 238 kts 146°
2026-05-04 01:27 35.46466 139.89756 3729 ft 262 kts 138°
2026-05-04 01:27 35.45578 139.91858 4118 ft 294 kts 108°
2026-05-04 01:27 35.45577 139.94403 4574 ft 314 kts 77°
2026-05-04 01:27 35.46557 139.96801 5179 ft 317 kts 46°
2026-05-04 01:28 35.48181 139.98618 5763 ft 316 kts 25°
2026-05-04 01:28 35.50189 139.99500 6339 ft 302 kts 356°
2026-05-04 01:28 35.52211 139.99294 6932 ft 286 kts 334°
2026-05-04 01:28 35.54104 139.98576 7573 ft 286 kts 330°
2026-05-04 01:29 35.56010 139.97820 8242 ft 290 kts 331°
2026-05-04 01:29 35.57952 139.97088 8879 ft 294 kts 332°
2026-05-04 01:29 35.59929 139.96381 9516 ft 299 kts 333°
2026-05-04 01:29 35.62055 139.96026 10058 ft 319 kts 348°
2026-05-04 01:30 35.64316 139.96125 10491 ft 333 kts 352°
2026-05-04 01:30 35.66679 139.96318 10776 ft 348 kts 353°
2026-05-04 01:30 35.69140 139.96500 11047 ft 360 kts 353°
2026-05-04 01:30 35.71685 139.96674 11395 ft 371 kts 352°
2026-05-04 01:31 35.74228 139.96489 11878 ft 358 kts 335°
2026-05-04 01:31 35.76563 139.95561 12427 ft 351 kts 327°
2026-05-04 01:31 35.78843 139.94453 13000 ft 354 kts 326°
2026-05-04 01:31 35.81149 139.93324 13531 ft 358 kts 326°
2026-05-04 01:32 35.83484 139.92202 14029 ft 362 kts 326°
2026-05-04 01:32 35.85821 139.91097 14535 ft 365 kts 327°
2026-05-04 01:32 35.88208 139.89975 14918 ft 368 kts 327°
2026-05-04 01:32 35.90610 139.88850 15073 ft 369 kts 327°
2026-05-04 01:33 35.93019 139.87721 15294 ft 371 kts 326°
2026-05-04 01:33 35.95449 139.86575 15760 ft 374 kts 326°
2026-05-04 01:33 35.98000 139.85652 16259 ft 395 kts 340°
2026-05-04 01:33 36.00822 139.85647 16738 ft 420 kts 359°
2026-05-04 01:34 36.03690 139.86681 17210 ft 438 kts 15°
2026-05-04 01:34 36.06492 139.88227 17690 ft 444 kts 18°
2026-05-04 01:34 36.08363 139.89272 17980 ft 445 kts 17°
2026-05-04 01:34 36.11218 139.90743 18389 ft 446 kts 14°
2026-05-04 01:35 36.14121 139.92152 18792 ft 448 kts 13°
2026-05-04 01:35 36.18001 139.93998 19321 ft 451 kts 12°
2026-05-04 01:35 36.20993 139.94974 19673 ft 438 kts 356°
2026-05-04 01:35 36.23986 139.95020 20041 ft 427 kts 346°
2026-05-04 01:36 36.25955 139.94887 20298 ft 428 kts 345°
2026-05-04 01:36 36.28948 139.94687 20683 ft 431 kts 346°
2026-05-04 01:36 36.31961 139.94536 21101 ft 435 kts 347°
2026-05-04 01:36 36.35004 139.94429 21477 ft 439 kts 347°
2026-05-04 01:37 36.38063 139.94336 21840 ft 442 kts 347°
2026-05-04 01:37 36.41148 139.94250 22202 ft 445 kts 348°
2026-05-04 01:37 36.44274 139.94306 22556 ft 452 kts 351°
2026-05-04 01:37 36.47432 139.94441 22906 ft 455 kts 351°
2026-05-04 01:38 36.50614 139.94586 23258 ft 458 kts 351°
2026-05-04 01:38 36.53803 139.94723 23548 ft 460 kts 351°
2026-05-04 01:38 36.57013 139.94862 23846 ft 462 kts 351°
2026-05-04 01:38 36.60241 139.94997 24153 ft 464 kts 351°
2026-05-04 01:39 36.63473 139.95139 24466 ft 466 kts 351°
2026-05-04 01:39 36.66715 139.95286 24774 ft 467 kts 351°
2026-05-04 01:39 36.69980 139.95423 25101 ft 469 kts 351°
2026-05-04 01:39 36.73245 139.95557 25371 ft 471 kts 351°
2026-05-04 01:40 36.76531 139.95698 25643 ft 473 kts 351°
2026-05-04 01:40 36.79823 139.95840 25931 ft 475 kts 350°
2026-05-04 01:40 36.83130 139.95980 26215 ft 476 kts 350°
2026-05-04 01:40 36.86450 139.96128 26489 ft 480 kts 352°
2026-05-04 01:41 36.89775 139.96699 26783 ft 496 kts
2026-05-04 01:41 36.93169 139.97601 27020 ft 499 kts
2026-05-04 01:41 36.96576 139.98522 27285 ft 501 kts
2026-05-04 01:41 36.99988 139.99435 27549 ft 502 kts
2026-05-04 01:42 37.03410 140.00317 27806 ft 503 kts
2026-05-04 01:42 37.06846 140.01170 28056 ft 504 kts
2026-05-04 01:42 37.10294 140.02032 28325 ft 507 kts
2026-05-04 01:42 37.13758 140.02911 28515 ft 510 kts
2026-05-04 01:43 37.17242 140.03808 28723 ft 512 kts
2026-05-04 01:43 37.20748 140.04722 28940 ft 514 kts
2026-05-04 01:43 37.24259 140.05643 29157 ft 516 kts
2026-05-04 01:43 37.27777 140.06586 29373 ft 518 kts
2026-05-04 01:44 37.31316 140.07543 29618 ft 520 kts
2026-05-04 01:44 37.34861 140.08482 29738 ft 522 kts
2026-05-04 01:44 37.38435 140.09379 29845 ft 524 kts
2026-05-04 01:44 37.42015 140.10278 30038 ft 526 kts
2026-05-04 01:45 37.45606 140.11193 30237 ft 527 kts
2026-05-04 01:45 37.49205 140.12134 30437 ft 528 kts
2026-05-04 01:45 37.56391 140.14025 30755 ft 533 kts
2026-05-04 01:46 37.60028 140.14977 30954 ft 534 kts
2026-05-04 01:46 37.63674 140.15923 31143 ft 536 kts
2026-05-04 01:46 37.67336 140.16879 31310 ft 537 kts
2026-05-04 01:46 37.70996 140.17838 31538 ft 537 kts
2026-05-04 01:47 37.74665 140.18795 31743 ft 539 kts
2026-05-04 01:47 37.78341 140.19758 31876 ft 540 kts
2026-05-04 01:47 37.82017 140.20722 32081 ft 539 kts
2026-05-04 01:47 37.85680 140.21685 32299 ft 537 kts
2026-05-04 01:48 37.89342 140.22649 32498 ft 537 kts
2026-05-04 01:48 37.93005 140.23617 32729 ft 537 kts
2026-05-04 01:48 37.96666 140.24583 32891 ft 537 kts
2026-05-04 01:48 38.00281 140.25528 33090 ft 537 kts
2026-05-04 01:49 38.03939 140.26496 33306 ft 537 kts
2026-05-04 01:49 38.07594 140.27465 33497 ft 536 kts
2026-05-04 01:49 38.11254 140.28430 33657 ft 536 kts
2026-05-04 01:49 38.14899 140.29398 33811 ft 536 kts
2026-05-04 01:50 38.18548 140.30371 33930 ft 536 kts
2026-05-04 01:50 38.22196 140.31339 34058 ft 535 kts
2026-05-04 01:50 38.25850 140.32310 34191 ft 535 kts
2026-05-04 01:50 38.29495 140.33285 34330 ft 535 kts
2026-05-04 01:51 38.33130 140.34271 34452 ft 534 kts
2026-05-04 01:51 38.36770 140.35376 34605 ft 544 kts
2026-05-04 01:51 38.40290 140.37364 34628 ft 564 kts 24°
2026-05-04 01:51 38.43520 140.40290 34681 ft 573 kts 35°
2026-05-04 01:52 38.49536 140.46934 34855 ft 576 kts 36°
2026-05-04 01:52 38.52589 140.50240 34997 ft 575 kts 35°
2026-05-04 01:52 38.55669 140.53499 35135 ft 574 kts 34°
2026-05-04 01:53 38.58753 140.56741 35291 ft 573 kts 34°
2026-05-04 01:53 38.61820 140.59970 35439 ft 571 kts 34°
2026-05-04 01:53 38.64877 140.63216 35590 ft 571 kts 35°
2026-05-04 01:53 38.67927 140.66468 35710 ft 570 kts 35°
2026-05-04 01:54 38.74060 140.72950 35818 ft 571 kts 35°
2026-05-04 01:54 38.80189 140.79471 35936 ft 572 kts 35°
2026-05-04 01:55 38.86307 140.86014 36049 ft 572 kts 35°
2026-05-04 01:55 38.92381 140.92489 36150 ft 572 kts 35°
2026-05-04 01:56 38.98494 140.99044 36242 ft 572 kts 35°
2026-05-04 01:56 39.04603 141.05602 36328 ft 572 kts 36°
2026-05-04 01:57 39.10709 141.12172 36421 ft 572 kts 34°
2026-05-04 01:57 39.16823 141.18763 36440 ft 573 kts 35°
2026-05-04 01:58 39.22890 141.25331 36463 ft 573 kts 35°
2026-05-04 01:58 39.28985 141.31936 36512 ft 572 kts 36°
2026-05-04 01:59 39.35072 141.38539 36548 ft 573 kts 36°
2026-05-04 01:59 39.41166 141.45179 36491 ft 570 kts 37°
2026-05-04 02:00 39.47213 141.51800 36493 ft 570 kts 37°
2026-05-04 02:00 39.53276 141.58420 36402 ft 570 kts 37°
2026-05-04 02:01 39.59272 141.64994 36441 ft 560 kts 37°
2026-05-04 02:01 39.65197 141.71525 36436 ft 559 kts 37°
2026-05-04 02:02 39.71133 141.78041 36428 ft 557 kts 37°
2026-05-04 02:02 39.77040 141.84569 36413 ft 558 kts 37°
2026-05-04 02:03 39.82916 141.91058 36495 ft 558 kts 37°
2026-05-04 02:03 39.88367 141.98323 36429 ft 565 kts 53°
2026-05-04 02:04 39.92928 142.06688 36421 ft 567 kts 56°
2026-05-04 02:04 39.97484 142.15121 36405 ft 569 kts 55°
2026-05-04 02:05 40.02069 142.23538 36415 ft 570 kts 55°
2026-05-04 02:05 40.06666 142.31992 36412 ft 568 kts 55°
2026-05-04 02:06 40.11214 142.40411 36413 ft 568 kts 56°
2026-05-04 02:06 40.15783 142.48856 36415 ft 569 kts 56°
2026-05-04 02:07 40.20299 142.57302 36429 ft 569 kts 56°
2026-05-04 02:07 40.24810 142.65768 36416 ft 567 kts 56°
2026-05-04 02:08 40.29359 142.74244 36410 ft 569 kts 56°
2026-05-04 02:08 40.33915 142.82753 36406 ft 569 kts 56°
2026-05-04 02:09 40.38446 142.91225 36403 ft 567 kts 56°
2026-05-04 02:09 40.42943 142.99673 36397 ft 568 kts 57°
2026-05-04 02:10 40.47463 143.08209 36411 ft 569 kts 56°
2026-05-04 02:10 40.51986 143.16781 36407 ft 571 kts 57°
2026-05-04 02:11 40.56906 143.24903 36385 ft 567 kts 41°
2026-05-04 02:11 40.59952 143.28158 36399 ft 561 kts 30°
2026-05-04 02:11 40.63319 143.30677 36403 ft 553 kts 18°
2026-05-04 02:12 40.70460 143.33854 36453 ft 542 kts
2026-05-04 02:12 40.77753 143.36528 36414 ft 544 kts
2026-05-04 02:13 40.85065 143.39280 36414 ft 547 kts
2026-05-04 02:13 40.92383 143.42132 36414 ft 550 kts
2026-05-04 02:14 40.99736 143.45024 36408 ft 550 kts
2026-05-04 02:14 41.07076 143.47909 36411 ft 551 kts
2026-05-04 02:15 41.14365 143.50771 36412 ft 547 kts
2026-05-04 02:15 41.21680 143.53647 36422 ft 549 kts
2026-05-04 02:16 41.29011 143.56550 36419 ft 551 kts
2026-05-04 02:16 41.36321 143.59510 36416 ft 548 kts
2026-05-04 02:17 41.43601 143.62352 36107 ft 541 kts
2026-05-04 02:17 41.47206 143.63768 35662 ft 538 kts
2026-05-04 02:17 41.50746 143.65180 35161 ft 535 kts
2026-05-04 02:18 41.54305 143.66597 34645 ft 532 kts
2026-05-04 02:18 41.57854 143.68009 34116 ft 530 kts
2026-05-04 02:18 41.61384 143.69434 33567 ft 529 kts
2026-05-04 02:18 41.64895 143.70887 33024 ft 527 kts
2026-05-04 02:19 41.68406 143.72302 32454 ft 525 kts
2026-05-04 02:19 41.71892 143.73694 31901 ft 522 kts
2026-05-04 02:19 41.75362 143.75068 31349 ft 520 kts
2026-05-04 02:19 41.78826 143.76446 30803 ft 518 kts
2026-05-04 02:20 41.82267 143.77825 30272 ft 516 kts
2026-05-04 02:20 41.85697 143.79202 29761 ft 513 kts
2026-05-04 02:20 41.89110 143.80576 29244 ft 510 kts
2026-05-04 02:20 41.91355 143.81490 28835 ft 509 kts
2026-05-04 02:21 41.94737 143.82876 28261 ft 507 kts
2026-05-04 02:21 41.98100 143.84255 27713 ft 502 kts
2026-05-04 02:21 42.01425 143.85612 27200 ft 496 kts
2026-05-04 02:21 42.04710 143.86935 26688 ft 491 kts
2026-05-04 02:22 42.07979 143.88246 26156 ft 486 kts
2026-05-04 02:22 42.11167 143.89511 25671 ft 481 kts
2026-05-04 02:22 42.14364 143.90768 25215 ft 476 kts
2026-05-04 02:22 42.17533 143.92029 24732 ft 472 kts
2026-05-04 02:23 42.20669 143.93297 24254 ft 469 kts
2026-05-04 02:23 42.23787 143.94566 23758 ft 466 kts
2026-05-04 02:23 42.26889 143.95834 23267 ft 463 kts
2026-05-04 02:23 42.29961 143.97094 22716 ft 459 kts
2026-05-04 02:24 42.33003 143.98345 22207 ft 453 kts
2026-05-04 02:24 42.36002 143.99567 21707 ft 447 kts
2026-05-04 02:24 42.38962 144.00749 21259 ft 442 kts
2026-05-04 02:24 42.41856 144.01904 20776 ft 436 kts
2026-05-04 02:25 42.44754 144.03045 20299 ft 431 kts
2026-05-04 02:25 42.47616 144.04180 19835 ft 426 kts
2026-05-04 02:25 42.50443 144.05309 19402 ft 420 kts
2026-05-04 02:25 42.53228 144.06421 18962 ft 415 kts
2026-05-04 02:26 42.55987 144.07451 18541 ft 406 kts
2026-05-04 02:26 42.58727 144.08235 18133 ft 399 kts
2026-05-04 02:26 42.61426 144.08969 17721 ft 394 kts
2026-05-04 02:26 42.64111 144.09694 17303 ft 391 kts
2026-05-04 02:27 42.66772 144.10416 16873 ft 389 kts
2026-05-04 02:27 42.69418 144.11138 16458 ft 386 kts
2026-05-04 02:27 42.72048 144.11856 16050 ft 384 kts
2026-05-04 02:27 42.74667 144.12572 15654 ft 383 kts
2026-05-04 02:28 42.77274 144.13282 15275 ft 381 kts
2026-05-04 02:28 42.79836 144.13987 14911 ft 379 kts
2026-05-04 02:28 42.82421 144.14696 14544 ft 378 kts
2026-05-04 02:28 42.84996 144.15360 14156 ft 376 kts
2026-05-04 02:29 42.87566 144.15999 13786 ft 375 kts
2026-05-04 02:29 42.90138 144.16641 13387 ft 374 kts
2026-05-04 02:29 42.92694 144.17289 12969 ft 373 kts
2026-05-04 02:29 42.95246 144.17935 12557 ft 371 kts
2026-05-04 02:30 42.97743 144.18568 12175 ft 368 kts
2026-05-04 02:30 43.00294 144.19217 11778 ft 367 kts
2026-05-04 02:30 43.02772 144.19881 11383 ft 362 kts
2026-05-04 02:30 43.05113 144.21130 10990 ft 361 kts 24°
2026-05-04 02:31 43.07285 144.22787 10640 ft 354 kts 27°
2026-05-04 02:31 43.09369 144.24435 10298 ft 347 kts 27°
2026-05-04 02:31 43.11439 144.26059 9954 ft 340 kts 26°
2026-05-04 02:31 43.13471 144.27656 9632 ft 334 kts 26°
2026-05-04 02:32 43.15493 144.29222 9296 ft 332 kts 26°
2026-05-04 02:32 43.17498 144.30795 8916 ft 331 kts 27°
2026-05-04 02:32 43.19490 144.32357 8555 ft 328 kts 27°
2026-05-04 02:32 43.21472 144.33904 8205 ft 326 kts 27°
2026-05-04 02:33 43.23432 144.35433 7851 ft 323 kts 27°
2026-05-04 02:33 43.25380 144.36941 7531 ft 320 kts 27°
2026-05-04 02:33 43.27316 144.38427 7203 ft 317 kts 27°
2026-05-04 02:33 43.29205 144.39897 6893 ft 315 kts 28°
2026-05-04 02:34 43.31100 144.41370 6554 ft 312 kts 28°
2026-05-04 02:34 43.32982 144.42827 6238 ft 309 kts 28°
2026-05-04 02:34 43.34884 144.44295 6038 ft 315 kts 28°
2026-05-04 02:34 43.36794 144.45779 5905 ft 315 kts 28°
2026-05-04 02:35 43.38698 144.47270 5744 ft 314 kts 28°
2026-05-04 02:35 43.40590 144.48762 5596 ft 312 kts 28°
2026-05-04 02:35 43.42473 144.50241 5428 ft 311 kts 28°
2026-05-04 02:35 43.44341 144.51705 5109 ft 307 kts 29°
2026-05-04 02:36 43.46147 144.53183 4977 ft 296 kts 36°
2026-05-04 02:36 43.47463 144.55242 4941 ft 277 kts 67°
2026-05-04 02:36 43.48144 144.57641 4709 ft 265 kts 76°
2026-05-04 02:36 43.48704 144.60023 4370 ft 259 kts 77°
2026-05-04 02:37 43.49255 144.62342 4002 ft 256 kts 76°
2026-05-04 02:37 43.49822 144.64639 3672 ft 251 kts 74°
2026-05-04 02:37 43.50386 144.66887 3351 ft 245 kts 74°
2026-05-04 02:37 43.50932 144.69084 3057 ft 239 kts 73°
2026-05-04 02:38 43.51471 144.71226 2985 ft 236 kts 73°
2026-05-04 02:38 43.52012 144.73367 2990 ft 234 kts 73°
2026-05-04 02:38 43.52504 144.75394 2985 ft 215 kts 74°
2026-05-04 02:38 43.52965 144.77248 3028 ft 196 kts 74°
2026-05-04 02:39 43.53388 144.78940 2958 ft 177 kts 74°
2026-05-04 02:39 43.53781 144.80511 2830 ft 172 kts 75°
2026-05-04 02:39 43.54168 144.82062 2617 ft 170 kts 75°
2026-05-04 02:39 43.54550 144.83589 2385 ft 166 kts 74°
2026-05-04 02:40 43.54921 144.85071 2154 ft 162 kts 73°
2026-05-04 02:40 43.55274 144.86483 1925 ft 149 kts 73°
2026-05-04 02:40 43.55589 144.87742 1711 ft 132 kts 72°
2026-05-04 02:40 43.55887 144.88937 1533 ft 132 kts 71°
2026-05-04 02:41 43.56187 144.90138 1361 ft 131 kts 70°
2026-05-04 02:41 43.56485 144.91330 1167 ft 132 kts 69°
2026-05-04 02:41 43.56810 144.92480 919 ft 129 kts 64°
2026-05-04 02:41 43.57171 144.93605 599 ft 129 kts 66°
2026-05-04 02:42 43.57458 144.94783 309 ft 130 kts 71°
2026-05-04 02:42 43.57731 144.95921 230 ft 114 kts 71°
2026-05-04 02:42 43.57895 144.96582 232 ft 37 kts 69°
2026-05-04 02:42 43.57945 144.96764 232 ft 20 kts 69°
2026-05-04 02:43 43.57990 144.96951 232 ft 21 kts 72°
2026-05-04 02:43 43.57996 144.97101 231 ft 13 kts 61°
2026-05-04 02:43 43.58025 144.97109 231 ft 2 kts 299°
2026-05-04 02:43 43.58018 144.97084 233 ft 4 kts 246°
2026-05-04 02:44 43.58004 144.97028 232 ft 9 kts 254°
2026-05-04 02:44 43.57979 144.96917 234 ft 15 kts 249°
2026-05-04 02:44 43.57937 144.96760 233 ft 20 kts 251°
2026-05-04 02:44 43.57885 144.96553 232 ft 25 kts 251°
2026-05-04 02:45 43.57825 144.96312 232 ft 27 kts 251°
2026-05-04 02:45 43.57762 144.96061 230 ft 28 kts 251°
2026-05-04 02:45 43.57697 144.95800 228 ft 29 kts 251°
2026-05-04 02:45 43.57665 144.95672 230 ft 13 kts 251°
2026-05-04 02:46 43.57634 144.95544 236 ft 14 kts 251°
2026-05-04 02:46 43.57554 144.95486 230 ft 15 kts 157°
2026-05-04 02:46 43.57534 144.95498 232 ft 0 kts 158°
2026-05-04 02:47 43.57532 144.95499 231 ft 2 kts 158°
2026-05-04 02:47 43.57514 144.95509 229 ft 4 kts 158°
2026-05-04 02:47 43.57485 144.95525 229 ft 5 kts 162°
2026-05-04 02:47 43.57441 144.95537 229 ft 7 kts 187°
2026-05-04 02:48 43.57389 144.95510 229 ft 8 kts 185°
2026-05-04 02:48 43.57352 144.95523 229 ft 5 kts 159°
2026-05-04 02:48 43.57348 144.95525 229 ft 0 kts 159°